"Pseudo-MPEC" for P117VAK

Created 2020 Oct 21 23:07:17 UT using Find_Orb

Click here for an explanation of pseudo-MPECs

 
 Astrometry: 
     P117VAK  C2020 10 15f\3bVW5sJFfKSO$9q'o58$i#G8A/Kak^I!8O@^;l8EJ+Q,CpJG9MF51
     P117VAK  C2020 10 15H+HWVc;2$1KS+cHQ!m!,0-`*0@RIHT.Jfe4hZFFEKAstrometryyF51
     P117VAK  C2020 10 15P5H\jredacted;o7QYxkO)p5%ri4B/yVx3click#DX(x.qDI6m)4F51
     P117VAK  C2020 10 15^Xq:(`@P.C_aShere7t06R9h:dB9kOst=for2-5LexplanationiF51

Station data:
(F51) Pan-STARRS 1, Haleakala  (N20.707235 W156.255910)  US/Hawaii.
   Observers N. Primak, A. Schultz, S. Watters, J. Thiel, T. Goggia. Measurer
   PS1 Science Consortium. 1.8-m Ritchey-Chrétien + CCD.

Orbital elements:  P117VAK
   Perihelion 2021 Feb 10.811920 +/- 119 TT = 19:29:09 (JD 2459256.311920)
Epoch 2020 Oct 16.0 TT = JDT 2459138.5   Earth MOID: 0.0054   AutoNEOCP
M 241.65681657 +/- 90               (J2000 ecliptic)
n   1.00450941 +/- 0.532            Peri.   80.14552 +/- 51
a   0.98741572 +/- 0.349            Node    67.18756 +/- 100
e   0.0598958 +/- 0.234             Incl.    1.33125 +/- 55
P   0.98/358.38d           H 28.1   G  0.15   U 12.3  SR
q 0.92827365 +/- 0.549    Q 1.04655779 +/- 15.2
From 4 observations 2020 Oct. 15 (44.7 min); mean residual 0".12
Residuals in arcseconds: 
201015 F51  .14-  .09-    201015 F51  .16+  .09+    
201015 F51  .13+  .09+    201015 F51  .15-  .09-    

Ephemerides (geocentric):
Date (UTC) HH   RA              Dec         delta   r     elong  mag " sig PA
---- -- -- --  -------------   -----------  ------ ------ -----  --- ---- ---
2020 10 21 23  03 03 09.883   -24 22 24.15  .02282 1.0128 140.0 21.5  32d  14
2020 10 22 00  03 03 02.150   -24 24 24.61  .02279 1.0128 140.0 21.5  32d  14
2020 10 22 01  03 02 54.387   -24 26 25.23  .02276 1.0127 140.0 21.5  32d  14
2020 10 22 02  03 02 46.595   -24 28 26.00  .02273 1.0127 140.0 21.5  32d  14
2020 10 22 03  03 02 38.773   -24 30 26.93  .02270 1.0127 140.0 21.5  32d  14
2020 10 22 04  03 02 30.921   -24 32 28.01  .02267 1.0126 139.9 21.5  32d  14
2020 10 22 05  03 02 23.039   -24 34 29.25  .02264 1.0126 139.9 21.5  32d  14
2020 10 22 06  03 02 15.128   -24 36 30.65  .02260 1.0125 139.9 21.5  32d  14
2020 10 22 07  03 02 07.187   -24 38 32.20  .02257 1.0125 139.9 21.4  32d  14
2020 10 22 08  03 01 59.215   -24 40 33.91  .02254 1.0125 139.9 21.4  32d  14
2020 10 22 09  03 01 51.214   -24 42 35.78  .02251 1.0124 139.9 21.4  32d  14
2020 10 22 10  03 01 43.182   -24 44 37.80  .02248 1.0124 139.9 21.4  32d  14
2020 10 22 11  03 01 35.120   -24 46 39.98  .02245 1.0124 139.9 21.4  33d  14
2020 10 22 12  03 01 27.027   -24 48 42.32  .02242 1.0123 139.9 21.4  33d  14
2020 10 22 13  03 01 18.904   -24 50 44.83  .02239 1.0123 139.8 21.4  33d  14
2020 10 22 14  03 01 10.750   -24 52 47.48  .02236 1.0122 139.8 21.4  33d  14
2020 10 22 15  03 01 02.565   -24 54 50.30  .02233 1.0122 139.8 21.4  33d  14
2020 10 22 16  03 00 54.350   -24 56 53.28  .02230 1.0122 139.8 21.4  33d  14
2020 10 22 17  03 00 46.103   -24 58 56.42  .02226 1.0121 139.8 21.4  33d  14
2020 10 22 18  03 00 37.825   -25 00 59.72  .02223 1.0121 139.8 21.4  33d  14
2020 10 22 19  03 00 29.517   -25 03 03.18  .02220 1.0120 139.8 21.4  33d  13
2020 10 22 20  03 00 21.177   -25 05 06.81  .02217 1.0120 139.8 21.4  33d  13
2020 10 22 21  03 00 12.805   -25 07 10.59  .02214 1.0120 139.7 21.4  33d  13
2020 10 22 22  03 00 04.402   -25 09 14.54  .02211 1.0119 139.7 21.4  33d  13
2020 10 22 23  02 59 55.968   -25 11 18.65  .02208 1.0119 139.7 21.4  33d  13
2020 10 23 00  02 59 47.502   -25 13 22.92  .02205 1.0119 139.7 21.4  33d  13
2020 10 23 01  02 59 39.004   -25 15 27.36  .02202 1.0118 139.7 21.4  34d  13
2020 10 23 02  02 59 30.474   -25 17 31.96  .02199 1.0118 139.7 21.4  34d  13
2020 10 23 03  02 59 21.912   -25 19 36.72  .02196 1.0117 139.7 21.4  34d  13
2020 10 23 04  02 59 13.318   -25 21 41.65  .02193 1.0117 139.7 21.4  34d  13
2020 10 23 05  02 59 04.692   -25 23 46.74  .02190 1.0117 139.6 21.4  34d  13
2020 10 23 06  02 58 56.033   -25 25 52.00  .02187 1.0116 139.6 21.4  34d  13
2020 10 23 07  02 58 47.342   -25 27 57.43  .02184 1.0116 139.6 21.4  34d  13
2020 10 23 08  02 58 38.618   -25 30 03.02  .02181 1.0115 139.6 21.4  34d  13
2020 10 23 09  02 58 29.862   -25 32 08.77  .02178 1.0115 139.6 21.4  34d  13
2020 10 23 10  02 58 21.073   -25 34 14.70  .02174 1.0115 139.6 21.4  34d  13
2020 10 23 11  02 58 12.251   -25 36 20.79  .02171 1.0114 139.5 21.4  34d  13
2020 10 23 12  02 58 03.396   -25 38 27.05  .02168 1.0114 139.5 21.4  34d  13
2020 10 23 13  02 57 54.507   -25 40 33.48  .02165 1.0113 139.5 21.4  34d  13
2020 10 23 14  02 57 45.586   -25 42 40.07  .02162 1.0113 139.5 21.4  35d  13
2020 10 23 15  02 57 36.631   -25 44 46.84  .02159 1.0113 139.5 21.4  35d  13
2020 10 23 16  02 57 27.642   -25 46 53.77  .02156 1.0112 139.5 21.4  35d  13
2020 10 23 17  02 57 18.620   -25 49 00.88  .02153 1.0112 139.5 21.4  35d  13
2020 10 23 18  02 57 09.564   -25 51 08.15  .02150 1.0112 139.4 21.4  35d  13
2020 10 23 19  02 57 00.475   -25 53 15.60  .02147 1.0111 139.4 21.4  35d  13
2020 10 23 20  02 56 51.351   -25 55 23.22  .02144 1.0111 139.4 21.3  35d  13
2020 10 23 21  02 56 42.193   -25 57 31.00  .02141 1.0110 139.4 21.3  35d  13
2020 10 23 22  02 56 33.001   -25 59 38.96  .02138 1.0110 139.4 21.3  35d  13